Location: Roland
(31.1349°N, 85.4372°W)
Time: 19:48:57
(UTC+00:00)

SR - Pass Details

Date: 16 April 2021
Orbit: 573 x 882 km, 66.7° (Epoch: 13 May)

Event Time Altitude Azimuth Distance (km) Brightness Sun altitude
Rises 13:02:03 0° 192° (SSW) 3,178 ? 22.5°
Reaches altitude 10° 13:04:23 10° 188° (S) 2,304 ? 23.0°
Maximum altitude 13:09:35 56° 111° (ESE) 966 ? 24.1°
Drops below altitude 10° 13:15:12 10° 34° (NE) 2,485 ? 25.3°
Sets 13:17:47 0° 31° (NNE) 3,451 ? 25.9°
